Weather History for KUES - January, 2013

Change the Weather History Date:

Sunday, January 20, 2013

  Actual Average Record
Temperature  
Mean Temperature 10 °F -  
Max Temperature 14 °F 26 °F 50 °F (1968)
Min Temperature 5 °F 10 °F -26 °F (1985)
Degree Days  
Heating Degree Days 56    
Moisture  
Dew Point -1 °F    
Average Humidity 63    
Maximum Humidity 67    
Minimum Humidity 53    
Precipitation  
Precipitation 0.00 in - - ()
Sea Level Pressure  
Sea Level Pressure 30.14 in    
Wind  
Wind Speed 20 mph (West)    
Max Wind Speed 34 mph    
Max Gust Speed 46 mph    
Visibility 10 miles    
Events      
Averages and records for this station are not official NWS values.
T = Trace of Precipitation, MM = Missing Value Source: NWS Daily Summary

Daily Weather History Graph

Daily Weather History Graph

Search for Another Location

Airport or City:

Trip Planner

Search our weather history database for the weather conditions in past years. The results will help you decide how hot, cold, wet, or windy it might be!

Date:

Astronomy

Jan. 20, 2013 Rise Set
Actual Time 7:18 AM CST 4:50 PM CST
Civil Twilight 6:47 AM CST 5:21 PM CST
Nautical Twilight 6:12 AM CST 5:56 PM CST
Astronomical Twilight 5:38 AM CST 6:29 PM CST
Moon 11:51 AM CST (1/20) 1:49 AM CST (1/20)
Length of Visible Light 10h 33m
Length of Day
9h 31m
Waxing Gibbous, 66% of the Moon is Illuminated
Jan 20
Waxing Gibbous
Jan 26
Full
Feb 3
Last Quarter
Feb 10
New
Feb 17
First Quarter

Hourly Weather History & Observations

Time (CST) Temp. Windchill Dew Point Humidity Pressure Visibility Wind Dir Wind Speed Gust Speed Precip Events Conditions
12:15 AM 14.0 °F -5.1 °F 3.2 °F 62% 29.91 in 10.0 mi WNW 24.2 mph 33.4 mph N/A   Clear
12:35 AM 14.0 °F -8.0 °F 3.2 °F 62% 29.93 in 10.0 mi WNW 34.5 mph 46.0 mph N/A   Mostly Cloudy
12:55 AM 12.2 °F -10.2 °F 1.4 °F 62% 29.95 in 10.0 mi WNW 33.4 mph 42.6 mph N/A   Overcast
1:15 AM 12.2 °F -7.5 °F 1.4 °F 62% 29.97 in 10.0 mi West 24.2 mph 39.1 mph N/A   Overcast
1:35 AM 10.4 °F -9.9 °F -0.4 °F 62% 29.99 in 10.0 mi WNW 24.2 mph 38.0 mph N/A   Mostly Cloudy
1:55 AM 10.4 °F -9.1 °F -0.4 °F 62% 30.00 in 10.0 mi WNW 21.9 mph 33.4 mph N/A   Scattered Clouds
2:15 AM 8.6 °F -13.8 °F -2.2 °F 62% 30.02 in 10.0 mi WNW 28.8 mph 42.6 mph N/A   Clear
2:35 AM 8.6 °F -10.5 °F -2.2 °F 62% 30.05 in 10.0 mi WNW 19.6 mph 38.0 mph N/A   Clear
2:55 AM 8.6 °F -10.0 °F -0.4 °F 67% 30.07 in 10.0 mi WNW 18.4 mph 33.4 mph N/A   Clear
3:15 AM 8.6 °F -12.3 °F -0.4 °F 67% 30.09 in 10.0 mi WNW 24.2 mph 31.1 mph N/A   Scattered Clouds
3:35 AM 8.6 °F -11.4 °F -0.4 °F 67% 30.09 in 10.0 mi WNW 21.9 mph 29.9 mph N/A   Clear
3:55 AM 8.6 °F -12.3 °F -0.4 °F 67% 30.10 in 10.0 mi WNW 24.2 mph 31.1 mph N/A   Clear
4:15 AM 8.6 °F -12.3 °F -0.4 °F 67% 30.11 in 10.0 mi WNW 24.2 mph 29.9 mph N/A   Clear
4:35 AM 8.6 °F -10.5 °F -0.4 °F 67% 30.13 in 10.0 mi WNW 19.6 mph 28.8 mph N/A   Clear
5:45 AM 6.8 °F -12.9 °F -2.2 °F 67% 30.18 in 10.0 mi West 19.6 mph 40.3 mph N/A   Clear
6:45 AM 5.0 °F -15.2 °F -4.0 °F 66% 30.20 in 10.0 mi WNW 19.6 mph 34.5 mph N/A   Clear
7:45 AM 5.0 °F -11.6 °F -4.0 °F 66% 30.22 in 10.0 mi WNW 12.7 mph - N/A   Scattered Clouds
8:45 AM 6.8 °F -11.8 °F -2.2 °F 67% 30.25 in 10.0 mi WNW 17.3 mph 34.5 mph N/A   Scattered Clouds
9:45 AM 6.8 °F -11.3 °F -2.2 °F 67% 30.27 in 10.0 mi WNW 16.1 mph - N/A   Scattered Clouds
10:45 AM 8.6 °F -6.3 °F -0.4 °F 67% 30.27 in 10.0 mi WNW 11.5 mph - N/A   Clear
12:45 PM 12.2 °F -3.1 °F -0.4 °F 57% 30.24 in 10.0 mi WNW 13.8 mph 20.7 mph N/A   Scattered Clouds
1:45 PM 12.2 °F -2.5 °F -2.2 °F 53% 30.22 in 10.0 mi WNW 12.7 mph 18.4 mph N/A   Scattered Clouds
2:45 PM 12.2 °F -3.7 °F -2.2 °F 53% 30.23 in 10.0 mi West 15.0 mph - N/A   Scattered Clouds
3:45 PM 12.2 °F -3.1 °F -2.2 °F 53% 30.22 in 10.0 mi West 13.8 mph - N/A   Scattered Clouds
4:45 PM 12.2 °F -1.8 °F -2.2 °F 53% 30.22 in 10.0 mi West 11.5 mph - N/A   Mostly Cloudy
5:45 PM 10.4 °F -4.1 °F -2.2 °F 57% 30.22 in 10.0 mi WNW 11.5 mph - N/A   Mostly Cloudy
6:45 PM 8.6 °F -4.7 °F -0.4 °F 67% 30.22 in 10.0 mi West 9.2 mph - N/A   Mostly Cloudy
7:45 PM 8.6 °F -2.6 °F -0.4 °F 67% 30.20 in 10.0 mi West 6.9 mph - N/A   Scattered Clouds
8:15 PM 10.4 °F -0.4 °F -0.4 °F 62% 30.19 in 10.0 mi WSW 6.9 mph - N/A   Mostly Cloudy
8:35 PM 10.4 °F 2.2 °F -0.4 °F 62% 30.19 in 10.0 mi WSW 4.6 mph - N/A   Overcast
8:45 PM 8.6 °F -2.6 °F -2.2 °F 62% 30.19 in 10.0 mi WSW 6.9 mph - N/A   Scattered Clouds
8:55 PM 10.4 °F 2.2 °F -0.4 °F 62% 30.19 in 10.0 mi WSW 4.6 mph - N/A   Scattered Clouds
9:15 PM 8.6 °F -2.6 °F -0.4 °F 67% 30.18 in 10.0 mi West 6.9 mph - N/A   Mostly Cloudy
9:55 PM 10.4 °F -1.5 °F -0.4 °F 62% 30.17 in 10.0 mi West 8.1 mph - N/A   Overcast
10:15 PM 10.4 °F -2.4 °F -0.4 °F 62% 30.17 in 10.0 mi West 9.2 mph - N/A   Overcast
10:35 PM 10.4 °F -2.4 °F -0.4 °F 62% 30.17 in 10.0 mi West 9.2 mph - N/A   Overcast
10:55 PM 8.6 °F -1.3 °F -0.4 °F 67% 30.17 in 10.0 mi West 5.8 mph - N/A   Overcast
11:15 PM 8.6 °F -3.7 °F -0.4 °F 67% 30.16 in 10.0 mi West 8.1 mph - N/A   Scattered Clouds
11:35 PM 8.6 °F -1.3 °F -0.4 °F 67% 30.15 in 10.0 mi West 5.8 mph - N/A   Clear